Location: Zengebe
(1.4833°N, 32.5167°E)
Time: 22:53:32
(UTC+00:00)

H-2A R/B - Pass Details

Date: 07 June 2020
Orbit: 577 x 656 km, 98.5° (Epoch: 10 July)

Event Time Altitude Azimuth Distance (km) Brightness Sun altitude
Exits shadow 01:37:16 18° 353° (N) 1,549 4.3 -29.4°
Drops below altitude 10° 01:38:24 10° 352° (N) 2,004 4.9 -29.1°
Sets 01:40:37 0° 351° (N) 2,921 5.7 -28.6°
